Home   Weather   Port St. Lucie   Past weeks

Flag for USA Past Weather in Port St. Lucie, Florida, USA — Yesterday and Last 2 Weeks

Now
79 °F

Thunderstorms. Overcast.


Feels Like: 82 °F
Forecast: 74 / 86 °F
Wind: 15 mph from Southeast

Location: Witham Field Airport

Current Time: Sep 25, 2016 at 3:11:11 AM

Latest Report: Sep 25, 2016 at 2:35 AM


Visibility: 10 mi

Pressure: 30.00 "Hg

Humidity: 84%

Dew Point: 73 °F

Location of Port St. LucieLocation

Past Weather in Port St. Lucie — Graph

°F

Port St. Lucie Temperature Yesterday

Maximum temperature yesterday: 90 °F (at 10:47 AM)
Minimum temperature yesterday: 77 °F (at 6:35 AM)
Average temperature yesterday: 80 °F

High & Low Weather Summary for the Past Weeks

 TemperatureHumidityPressure
High91 °F (Sep 12, 1:47 PM)94% (Sep 11, 4:55 AM)30.13 "Hg (Sep 11, 4:55 AM)
Low75 °F (Sep 23, 3:55 AM)52% (Sep 17, 12:47 PM)29.89 "Hg (Sep 13, 1:35 AM)
Average82 °F84%30.01 "Hg
* Reported Sep 10 1:15 AM — Sep 25 1:55 AM, Port St. Lucie, Weather by CustomWeather, © 2016

Note: Actual official high and low records may vary slightly from our data, if they occured in-between our weather recording intervals... More about our weather records

Advertising

Port St. Lucie Weather History for the Previous 24 Hours

Scroll right to see more
 ConditionsComfort  
Time TempWeatherWind HumidityBarometerVisibility
1:55 AM
Sun, Sep 25
79 °FThunderstorms. Mostly cloudy.No wind94%30.01 "Hg10 mi
1:35 AM79 °FThunderstorms. Mostly cloudy.5 mph89%30.02 "Hg10 mi
1:15 AM77 °FThunderstorms. Mostly cloudy.3 mph94%30.02 "Hg10 mi
12:55 AM77 °FThunderstorms. Mostly cloudy.No wind94%30.03 "Hg10 mi
12:35 AM79 °FThundershowers. Mostly cloudy.No wind89%30.02 "Hg10 mi
12:15 AM79 °FThundershowers. Overcast.No wind94%30.02 "Hg10 mi
11:55 PM
Sat, Sep 24
79 °FOvercast.6 mph94%30.03 "Hg10 mi
11:35 PM79 °FOvercast.6 mph94%30.03 "Hg10 mi
11:15 PM79 °FMostly cloudy.3 mph94%30.03 "Hg7 mi
10:55 PM79 °FMostly cloudy.No wind94%30.02 "Hg10 mi
10:35 PM79 °FMostly cloudy.No wind94%30.02 "Hg10 mi
10:15 PM79 °FThundershowers. Mostly cloudy.3 mph94%30.02 "Hg10 mi
8:47 PM81 °FThundershowers. Passing clouds.No wind94%30.04 "Hg7 mi
6:47 PM79 °FBroken clouds.3 mph89%30.01 "Hg7 mi
2:47 PM84 °FThunderstorms. Scattered clouds.No wind89%30.02 "Hg7 mi
1:47 PM86 °FThundershowers. Scattered clouds.5 mph79%30.03 "Hg7 mi
12:47 PM86 °FThundershowers. Scattered clouds.5 mph75%30.05 "Hg7 mi
11:47 AM90 °FThundershowers. Scattered clouds.5 mph67%30.06 "Hg7 mi
10:47 AM90 °FThundershowers. Scattered clouds.No wind63%30.06 "Hg7 mi
9:47 AM84 °FThundershowers. Passing clouds.No wind79%30.05 "Hg7 mi
8:47 AM81 °FSunny.No wind89%30.05 "Hg7 mi
7:47 AM77 °FPartly sunny.No wind94%30.04 "Hg7 mi
6:47 AM79 °FPassing clouds.No wind89%30.02 "Hg7 mi
6:35 AM77 °FClear.No wind94%30.02 "Hg10 mi
6:15 AM79 °FClear.No wind89%30.02 "Hg10 mi
5:55 AM79 °FClear.No wind89%30.01 "Hg10 mi
5:35 AM79 °FClear.No wind89%30.00 "Hg10 mi
5:15 AM79 °FClear.No wind89%30.00 "Hg10 mi
4:55 AM79 °FClear.No wind89%30.00 "Hg10 mi
4:35 AM79 °FClear.No wind94%30.00 "Hg10 mi
4:15 AM79 °FClear.No wind94%30.00 "Hg10 mi
3:55 AM79 °FThundershowers. Clear.3 mph94%30.00 "Hg10 mi
3:35 AM79 °FClear.No wind94%30.00 "Hg10 mi
3:15 AM79 °FClear.No wind89%30.01 "Hg10 mi
Weather by CustomWeather, © 2016

See weather overviewHow to use our weather pages